Regional Weather Roundup
Issued by NWS Wakefield, VA

Home | Current Version | Previous Version | Graphics & Text | Print | Product List | Glossary On
Versions: 1 2 3 4 5 6 7 8 9 10 11 12 13 14 15 16 17 18 19 20 21 22 23 24 25 26 27 28
000
ASUS41 KAKQ 172110
RWRAKQ

REGIONAL WEATHER ROUNDUP
NATIONAL WEATHER SERVICE WAKEFIELD VA
500 PM EDT THU APR 17 2014

Note: "fair" indicates few or no clouds below 12,000 feet with no
significant weather and/or obstructions to visibility. * = Denotes
station may not report precipitation (e.g., rain,snow,etc.),
thunder or fog.

VAZ042-051-052>054-056-172200-
NORTHERN VIRGINIA

CITY           SKY/WX    TMP DP  RH WIND       PRES   REMARKS
WASH NATIONAL  PTSUNNY   55  33  43 E13       30.57F
DULLES         PTSUNNY   54  30  40 SE10      30.54F
FORT BELVOIR   MOSUNNY   55  29  38 SE7       30.56F
QUANTICO       MOSUNNY   55  36  48 SE12      30.56S
FREDERICKSBRG* MOSUNNY   55  32  41 E8        30.54F
STAFFORD*      MOSUNNY   56  35  44 SE8       30.58S
WARRENTON      MOSUNNY   58  39  48 E9        30.51F
CULPEPER*      SUNNY     61  25  25 SE5       30.53F
MANASSAS*      MOSUNNY   55  32  41 E13       30.53F
LEESBURG*      MOSUNNY   55  32  41 SE7       30.54F
WINCHESTER     SUNNY     55  28  35 E12G17    30.50F
$$

VAZ048-049-060>072-079>083-172200-
CENTRAL AND SOUTH CENTRAL VIRGINIA...AND NORTH CENTRAL NORTH CAROLINA

CITY           SKY/WX    TMP DP  RH WIND       PRES   REMARKS
RICHMOND       CLOUDY    59  33  37 E10       30.51F
CHESTERFIELD*  NOT AVBL
HANOVER        MOSUNNY   57  34  41 E9        30.53F
TAPPAHANNOCK*  MOSUNNY   53  28  36 E9        30.55F
CHARLOTTSVILLE MOSUNNY   58  26  29 VRB3      30.49F
ORANGE*        MOSUNNY   57  30  35 NE6       30.52F
LOUISA*        MOSUNNY   57  30  35 E8        30.50S
FARMVILLE*     MOSUNNY   63  25  23 E7        30.47F
SOUTH HILL*    MOSUNNY   63  36  36 CALM      30.52F
ROANOKE RAPIDS PTCLDY    63  41  45 E9        30.47F
RALEIGH        PTSUNNY   63  33  32 E6        30.45F
$$

VAZ088>098-172200-
SOUTHEAST VIRGINIA

CITY           SKY/WX    TMP DP  RH WIND       PRES   REMARKS
NORFOLK        SUNNY     48  37  65 NE18G29   30.55S
VIRGINIA BEACH PTSUNNY   49  37  63 NE17G29   30.54S
NORFOLK NAVAL  PTSUNNY   50  37  61 NE18G25   30.57R
WEST POINT*    MOSUNNY   57  31  37 NE12      30.56S
NEWPORT NEWS   LGT RAIN  53  40  61 E16G24    30.55S
LANGLEY AFB    MOSUNNY   50  39  67 E20       30.56S
FORT EUSTIS    MOSUNNY   53  41  63 E8        30.53S
WILLIAMSBURG*    N/A     61  39  44 NE6       30.54S
FRANKLIN*      MOSUNNY   55  39  54 E15       30.53R
WAKEFIELD      MOSUNNY   55  38  52 VRB5      30.52F
$$

VAZ020-022-025-037-045-172200-
WESTERN AND SOUTHWEST VIRGINIA

CITY           SKY/WX    TMP DP  RH WIND       PRES   REMARKS
STAUNTON*      MOSUNNY   56  21  26 S6        30.50S
HOT SPRINGS VA SUNNY     48  25  40 E9        30.47F
LYNCHBURG      SUNNY     61  23  23 CALM      30.48F
DANVILLE       SUNNY     62  28  27 E6        30.46F
MARTINSVILLE   SUNNY     62  26  25 E7        30.47F
ROANOKE        MOSUNNY   56  24  29 SE9       30.48F
BLACKSBURG     SUNNY     55  30  38 E10       30.46S
DUBLIN*        SUNNY     56  26  30 E10       30.43F
MARION*        SUNNY     57  24  27 E14       30.40F
HILLSVILLE*    SUNNY     54  10  17 SE7       30.45S
RICHLANDS*     CLEAR     64  22  20 SE8       30.34F
WISE*          SUNNY     64  10  12 SE7       30.33F
ABINGDON*      SUNNY     67  28  22 E10       30.32F
$$

MDZ021>025-VAZ099-100-172200-
SOUTHERN MARYLAND AND THE DELMARVA PENINSULA

CITY           SKY/WX    TMP DP  RH WIND       PRES   REMARKS
PATUXENT RIVER PTSUNNY   52  32  46 E13       30.56F
BAY BRIDGE APT MOSUNNY   50  30  46 E10G16    30.59S
LEONARDTOWN    SUNNY     50  30  46 E9G16     30.58S
DOVER          SUNNY     48  34  59 E16       30.57F
GEORGETOWN     CLOUDY    45  31  58 E12       30.62S
EASTON         MOSUNNY   52  34  50 E13G23    30.63F
CAMBRIDGE      MOSUNNY   52  32  46 E14       30.58F
SALISBURY      CLOUDY    48  33  56 NE16      30.60R
OCEAN CITY     CLOUDY    46  34  62 NE16G22   30.61S
WALLOPS ISLAND MOSUNNY   49  37  63 E25       30.58F
ACCOMACK*      MOSUNNY   46  32  57 NE17G24   30.56S
$$

NCZ012>017-030>032-172200-
EASTERN NORTH CAROLINA

CITY           SKY/WX    TMP DP  RH WIND       PRES   REMARKS
ELIZABETH CITY MOSUNNY   53  41  63 NE21      30.52S
AHOSKIE*       SUNNY     57  40  52 NE8       30.49F
EDENTON*       MOSUNNY   55  41  59 NE15      30.51R
CURRITUCK*     MOSUNNY   51  38  60 NE16G23   30.53S
KILL DEVIL HLS   N/A     50  42  73 N13G21    30.49S
MANTEO         MOSUNNY   50  42  73 NE21G26   30.50R
CAPE HATTERAS  CLOUDY    55  47  74 NE17G30   30.45S
GOLDSBORO      SUNNY     64  44  48 E9        30.42F
WASHINGTON       N/A     63  44  50 NE9       30.47F
GREENVILLE     MOSUNNY   64  43  45 E12       30.45F
NEW BERN       SUNNY     63  45  51 NE14      30.46S
WILMINGTON     SUNNY     67  47  48 E14       30.40S
$$

VAZ048-172200-
ELSEWHERE

CITY           SKY/WX    TMP DP  RH WIND       PRES   REMARKS
HARRISBURG PA  PTSUNNY   56  30  37 SE14      30.55F
BALTIMORE      PTSUNNY   51  30  44 E13       30.57F
ANNAPOLIS      SUNNY     50  33  52 E12       30.59F
ANDREWS AFB    MOSUNNY   52  33  49 E10       30.56F
WILMINGTON DE  SUNNY     52  30  43 SE14G21   30.61F
PHILADELPHIA   MOSUNNY   51  28  41 E13       30.63F
WILDWOOD NJ*   CLOUDY    43  28  56 NE16G24   30.64S
ATLANTIC CITY  CLOUDY    42  30  62 NE15G22   30.64F
HENDERSON NC   SUNNY     61  31  32 NE8       30.46F
GREENSBORO     PTSUNNY   60  25  26 E7        30.43F
ROCKY MOUNT      N/A    N/A N/A N/A MISG      30.46F
FAYETTEVILLE   SUNNY     66  39  37 NE8       30.42F
CHARLOTTE      MOSUNNY   64  26  23 E10G24    30.41F
$$

VAZ100-172200-
MARINE

STATION/POSITION TIME  TEMP    WIND        PRES    WAVE   SWELL
                       AIR SEA DIR/SP/G            HT/PER HT/PER
                 (UTC) (F)     (DEG/KT/KT) (MB)    (FT/S) (FT/S)
44066 TX TWR #4  2100   40 45   50/ 21/ 27 1036.4F   9/ 7   5/ 8
CAPE MAY NJ      2100   43 52   80/  7/ 12 1036.9S
LEWES DE         2100   43 49   70/ 20/ 22 1036.3S
15NM E FENWICK I 2100   43 45              1036.1F   8/ 8
OCEAN-CITY-INLET 2100   44 47   70/  9/ 15 1036.1R
WACHAPREAGUE VA  2100   46 57   50/ 20/ 26 1034.7S
THOMAS POINT MD  2100   48 53  100/ 11/ 15 1036.2F
GOOSES REEF MD   2100   49      90/ 10/ 12 1037.0S
COVE POINT MD    2100   49     110/ 10/ 12 1035.0F
SOLOMONS ISLAND  2100      52                N/A
BISHOPS HEAD MD  2100   50 55   60/ 12/ 18 1035.0S
PINEY POINT MD   2100          110/  9/ 12   N/A
POTOMAC MD       2100   50      70/ 12/ 16 1034.4F
CAMBRIDGE MD     2100   48 56   60/ 12/ 17 1035.2F
LEWISETTA VA     2100   50 53   70/ 10/ 12 1034.6F
RAPPAHANNOCK LGT 2100           60/ 16/ 19 1034.8F
STINGRAY PT      2100   49      70/ 14/ 16 1034.6F
YORK RVR RNG VA  2100   48      80/ 16/ 19 1033.7S
YORKTOWN VA      2100   49 55   90/ 15/ 18 1034.3S
JAMESTOWN VA     2100   52      90/  8/ 16   N/A
DOMINION TERM VA 2100   48      60/ 16/ 21 1034.5R
KIPTOPEKE VA     2100      53   70/ 14/ 22   N/A
CHES BAY BRIDGE  2100   45 51   40/ 23/ 25 1033.9S
CAPE HENRY VA    2100   45      40/ 22/ 25   N/A
CHESAPEAKE LGHT  2000   45      40/ 23/ 25 1034.5S
WILLOUBY STN VA  2100   46      70/ 19/ 20 1033.4R
S CRANEY ISL VA  2100           10/ 12/ 18 1034.4R
CAPE HENRY BUOY  2100      47                N/A     7/ 9   2/11
1ST LANDING BUOY 2100      46                N/A     8/ 9   5/ 9
64NM E OF VA BCH 2100   50 51   30/ 23/ 29 1031.8S  10/11   8/11
DUCK PIER NC     2100   47 51   20/ 25/ 27 1032.0S
44100 DUCK FRF   2100      47                N/A     9/ 8   2/11
44056 DUCK FRF   2100      50                N/A     8/ 9   2/11
OREGON INLET NC  2100   50 51   10/ 14/ 21 1031.9F
HATTERAS NC      2100   53 56   10/ 23/ 29 1030.7F
CAPE LOOKOUT NC  2000   57      40/ 18/ 22 1030.6F
FRYING PAN SHLS  2100   60 62   60/ 21/ 25 1028.3F   8/ 8   3/10
$$



USA.gov is the U.S. government's official web portal to all federal, state and local government web resources and services.